[[{"header":{"parameterUnit":"m.s-1","parameterCategory":1,"la1":30.2991,"la2":30.254,"lo1":-89.0895,"lo2":-89.0444,"dy":0.0017,"dx":0.0017,"nx":28,"ny":28,"refTime":"2025-04-07T09:00:00:Z","depth":0,"parameterNumber":2,"parameterNumberName":"U-component_of_WINDS"},"data":[0,0,0,0,0,0,0,0,0,0,0,0,0,0,0,0,0,0,0,0,0,0,0,0,0,0,0,0,0,0,0,0,0,0,0,0,0,0,0,0,0,0,0,0,0,0,0,0,0,0,0,0,0,0,0,0,0,0,4.4314,4.4315,0,4.4333,4.4333,4.4333,4.4292,4.4291,4.429,4.4288,4.4306,4.4307,4.4309,0,0,0,0,0,0,0,0,0,0,0,0,0,4.4243,4.4245,4.4314,4.4315,4.4315,4.4333,4.4333,4.4334,4.4292,4.4291,4.4289,4.4288,4.4305,4.4307,4.4309,0,0,0,0,0,0,0,0,0,0,0,0,0,4.4269,4.4245,4.4314,4.4297,4.4295,4.4333,4.4333,4.4334,4.4293,4.4291,4.4289,4.4287,4.4305,4.4307,4.4309,4.4365,0,0,4.4317,4.4318,0,0,0,0,0,0,0,0,4.4268,4.4272,4.4299,4.4298,4.4296,4.4308,4.4314,4.4344,4.4293,4.4294,4.4288,4.4286,4.4308,4.431,4.4318,4.4366,4.4366,4.4317,4.4319,4.432,4.4321,0,0,0,0,0,0,0,4.4266,4.4271,4.4322,4.43,4.4298,4.4288,4.4289,4.432,4.4312,4.4294,4.4291,4.4293,4.4307,4.4316,4.4318,4.4367,4.4317,4.432,4.4321,4.4322,4.4462,4.4464,0,0,0,0,0,0,4.4267,4.427,4.4321,4.4322,4.4277,4.4291,4.4292,4.4307,4.4311,4.431,4.4295,4.4291,4.4312,4.4315,4.4319,4.4384,4.432,4.4322,4.4324,4.446,4.4462,4.4465,0,0,0,0,0,0,4.4265,4.4272,4.432,4.4295,4.4301,4.4294,4.431,4.4308,4.4316,4.4313,4.4311,4.4305,4.4311,4.4315,4.4354,4.4384,4.4324,4.4326,4.4457,4.4461,4.4464,4.4516,0,0,0,0,0,0,4.4263,4.4271,4.4292,4.4296,4.4302,4.4356,4.4312,4.431,4.4321,4.4317,4.4322,4.4321,4.431,4.435,4.4357,4.4387,4.4328,4.4454,4.4459,4.4463,4.4511,4.452,4.4528,0,0,0,0,0,4.4261,4.4305,4.4293,4.43,4.4328,4.4358,4.4361,4.4348,4.4324,4.4345,4.4343,4.432,4.438,4.4355,4.4361,4.4393,4.4452,4.4458,4.4462,4.4508,4.4519,4.4528,0,0,0,0,0,0,4.4304,4.4305,4.4292,4.4339,4.4349,4.4351,4.4376,4.436,4.4376,4.4371,4.4353,4.4355,4.4397,4.4399,4.4371,4.4447,4.4412,4.4419,4.4444,4.4455,4.4463,4.4462,4.433,0,0,0,0,0,4.4319,4.4343,4.4343,4.4385,4.439,4.4383,4.4395,4.4384,4.4393,4.4397,4.4397,4.4406,4.4427,4.4441,4.446,4.4512,4.4513,4.4537,4.4545,4.4552,4.4558,4.4586,4.4597,4.4481,4.4481,4.4481,0,0,4.435,4.4354,4.437,4.4393,4.4399,4.4425,4.4386,4.4414,4.4433,4.4401,4.4438,4.4439,4.4448,4.4494,4.4514,4.4497,4.459,4.4559,4.4564,4.4566,4.4592,4.4603,4.4613,4.4484,4.4484,4.4483,0,0,4.442,4.4425,4.4461,4.4468,4.4479,4.4474,4.4483,4.4488,4.4487,4.4525,4.4502,4.4524,4.456,4.4568,4.4576,4.4652,4.4633,4.4659,4.4703,4.4731,4.474,4.4748,4.4775,4.4785,4.4664,4.4665,4.4665,0,4.4457,4.4494,4.4481,4.4511,4.4523,4.4496,4.4533,4.454,4.4556,4.4565,4.4545,4.4591,4.4595,4.4643,4.4662,4.467,4.468,4.4657,4.474,4.4747,4.4755,4.478,4.4791,4.4668,4.4667,4.4667,4.4667,0,4.454,4.4566,4.4594,4.4611,4.4626,4.4659,4.4651,4.4667,4.4656,4.4654,4.4693,4.4697,4.4717,4.4728,4.4717,4.4775,4.4764,4.4742,4.4707,4.4769,4.4793,4.4803,4.4672,4.4671,4.467,4.4669,0,0,4.4635,4.4646,4.4656,4.4665,4.4675,4.4696,4.4728,4.4749,4.4764,4.4776,4.4803,4.4836,4.4816,4.4826,4.4816,4.4841,4.4901,4.4816,4.4816,4.4832,4.4966,4.4982,4.4994,4.4889,4.4891,4.4892,4.4965,0,4.4704,4.476,4.475,4.4805,4.483,4.4807,4.4835,4.4845,4.4844,4.4865,4.4864,4.4888,4.486,4.4866,4.489,4.4889,4.4928,4.4883,4.4914,4.4915,4.4911,4.5006,4.5023,4.5092,4.4975,4.4976,4.4977,0,4.4791,4.4809,4.4867,4.4875,4.4885,4.4911,4.493,4.495,4.4961,4.4959,4.4972,4.4958,4.499,4.4955,4.5001,4.4971,4.4983,4.4985,4.4987,4.4989,4.4949,4.501,4.5113,4.5123,4.4992,4.4991,4.499,0,4.4855,4.4893,4.4933,4.4941,4.4951,4.497,4.4975,4.4985,4.4998,4.5015,4.5024,4.5044,4.5055,4.5071,4.5063,4.5038,4.511,4.5074,4.5108,4.5109,4.5124,4.5123,4.523,4.5132,4.5132,4.5132,4.5132,0,4.4933,4.497,4.4962,4.4986,4.5027,4.5016,4.5056,4.5058,4.5067,4.5092,4.5073,4.5096,4.5084,4.5107,4.5101,4.5139,4.5144,4.5143,4.5141,4.5145,4.5145,4.5152,4.5147,4.5135,4.5134,4.5134,4.5133,0,4.5011,4.5007,4.5049,4.5057,4.506,4.5089,4.5095,4.5119,4.5117,4.5149,4.5155,4.5153,4.5179,4.5173,4.52,4.5196,4.5245,4.5237,4.5242,4.524,4.5275,4.5272,4.5389,4.5404,4.5298,4.5299,4.53,0,4.506,4.5088,4.5099,4.5115,4.5122,4.5148,4.5162,4.5153,4.5168,4.5184,4.5206,4.523,4.5249,4.5292,4.5292,4.5314,4.5306,4.5346,4.5309,4.5312,4.5307,4.5305,4.5308,4.5353,4.5354,4.5355,4.5356,0,4.5149,4.5147,4.5168,4.519,4.5209,4.5225,4.524,4.5253,4.5245,4.5264,4.5291,4.5306,4.5336,4.536,4.5381,4.5386,4.537,4.5368,4.5377,4.5381,4.5382,4.5382,4.5261,4.5365,4.5364,4.5363,4.5363,4.5362,4.5214,4.5238,4.5251,4.5276,4.5287,4.5301,4.5324,4.5326,4.5348,4.5372,4.5366,4.5396,4.5408,4.5434,4.5442,4.5466,4.5451,4.5464,4.5467,4.5471,4.5475,4.5379,4.547,4.5469,4.5469,4.5469,4.5469,0,4.5302,4.5309,4.5333,4.5355,4.5375,4.536,4.5376,4.5394,4.5421,4.5434,4.5454,4.5486,4.551,4.5513,4.5537,4.5555,4.5548,4.5561,4.556,4.5561,4.5487,4.5477,4.5567,4.5567,4.5567,4.5567,4.5567,4.5567,4.535,4.539,4.539,4.5435,4.5442,4.5473,4.5484,4.5497,4.5508,4.5544,4.5565,4.5567,4.5576,4.56,4.5622,4.5623,4.5632,4.5648,4.5646,4.5576,4.5566,4.5557,4.5547,4.565,4.565,4.5717,4.5718,4.5719]},{"header":{"parameterUnit":"m.s-1","parameterCategory":1,"la1":30.2991,"la2":30.254,"lo1":-89.0895,"lo2":-89.0444,"dy":0.0017,"dx":0.0017,"nx":28,"ny":28,"refTime":"2025-04-07T09:00:00:Z","depth":0,"parameterNumber":3,"parameterNumberName":"V-component_of_WINDS"},"data":[0,0,0,0,0,0,0,0,0,0,0,0,0,0,0,0,0,0,0,0,0,0,0,0,0,0,0,0,0,0,0,0,0,0,0,0,0,0,0,0,0,0,0,0,0,0,0,0,0,0,0,0,0,0,0,0,0,0,-6.0546,-6.0547,0,-6.0595,-6.0596,-6.0596,-6.0557,-6.0555,-6.0553,-6.0552,-6.0599,-6.0602,-6.0605,0,0,0,0,0,0,0,0,0,0,0,0,0,-6.0417,-6.0419,-6.0546,-6.0547,-6.0547,-6.0595,-6.0596,-6.0596,-6.0557,-6.0555,-6.0553,-6.0551,-6.0599,-6.0602,-6.0605,0,0,0,0,0,0,0,0,0,0,0,0,0,-6.047,-6.042,-6.0546,-6.0533,-6.0533,-6.0595,-6.0596,-6.0597,-6.0557,-6.0555,-6.0552,-6.055,-6.0597,-6.0602,-6.0606,-6.0682,0,0,-6.0619,-6.062,0,0,0,0,0,0,0,0,-6.0467,-6.0475,-6.0535,-6.0534,-6.0534,-6.0567,-6.0568,-6.0625,-6.0558,-6.0548,-6.0552,-6.0549,-6.0591,-6.0595,-6.061,-6.0684,-6.0686,-6.0619,-6.0622,-6.0623,-6.0625,0,0,0,0,0,0,0,-6.0463,-6.0472,-6.0565,-6.0535,-6.0535,-6.0525,-6.053,-6.0578,-6.0583,-6.0549,-6.0546,-6.0552,-6.059,-6.0606,-6.0611,-6.0687,-6.0619,-6.0623,-6.0625,-6.0627,-6.0828,-6.0831,0,0,0,0,0,0,-6.0461,-6.047,-6.0564,-6.0567,-6.0494,-6.0529,-6.0535,-6.0559,-6.0582,-6.0583,-6.0555,-6.055,-6.06,-6.0606,-6.0612,-6.0704,-6.0623,-6.0627,-6.063,-6.0826,-6.0829,-6.0832,0,0,0,0,0,0,-6.0459,-6.047,-6.0562,-6.0518,-6.0528,-6.0534,-6.0562,-6.0561,-6.0577,-6.0587,-6.0587,-6.057,-6.0598,-6.0606,-6.0666,-6.0705,-6.0629,-6.0633,-6.0822,-6.0827,-6.0831,-6.0888,0,0,0,0,0,0,-6.0455,-6.0469,-6.0498,-6.0519,-6.0531,-6.0615,-6.0564,-6.0564,-6.0585,-6.058,-6.0601,-6.0602,-6.0597,-6.066,-6.067,-6.071,-6.0636,-6.0819,-6.0824,-6.0829,-6.0883,-6.0894,-6.0903,0,0,0,0,0,-6.0451,-6.0512,-6.05,-6.0512,-6.0568,-6.0617,-6.0624,-6.0617,-6.0588,-6.0618,-6.0624,-6.0602,-6.07,-6.0666,-6.0677,-6.0719,-6.0816,-6.0823,-6.0829,-6.0878,-6.0892,-6.0903,0,0,0,0,0,0,-6.0494,-6.0514,-6.0501,-6.0571,-6.0593,-6.061,-6.0647,-6.0632,-6.0661,-6.0655,-6.0645,-6.065,-6.0713,-6.0722,-6.0684,-6.0795,-6.0753,-6.0762,-6.0787,-6.08,-6.081,-6.0806,-6.064,0,0,0,0,0,-6.0512,-6.0551,-6.0566,-6.0626,-6.0638,-6.0641,-6.0662,-6.0655,-6.0677,-6.0686,-6.0696,-6.0718,-6.0754,-6.0777,-6.081,-6.0884,-6.0889,-6.0919,-6.0929,-6.0937,-6.0945,-6.0986,-6.1,-6.0853,-6.0853,-6.0853,0,0,-6.0549,-6.0565,-6.059,-6.0635,-6.0652,-6.0692,-6.0649,-6.0693,-6.0723,-6.0692,-6.0749,-6.0758,-6.0782,-6.0849,-6.0879,-6.0858,-6.0987,-6.0946,-6.0952,-6.0955,-6.0994,-6.1008,-6.102,-6.0857,-6.0856,-6.0856,0,0,-6.0637,-6.0653,-6.0706,-6.0724,-6.0749,-6.0751,-6.0764,-6.0785,-6.079,-6.0848,-6.0826,-6.0861,-6.0923,-6.0941,-6.0958,-6.1056,-6.1037,-6.1067,-6.1121,-6.1161,-6.1173,-6.1183,-6.1219,-6.1232,-6.1075,-6.1075,-6.1075,0,-6.068,-6.0741,-6.0734,-6.0781,-6.0802,-6.0778,-6.0831,-6.0848,-6.0884,-6.0899,-6.0875,-6.0953,-6.0967,-6.1039,-6.1064,-6.1078,-6.1093,-6.1064,-6.1172,-6.1182,-6.1191,-6.1225,-6.1239,-6.1079,-6.1078,-6.1078,-6.1078,0,-6.0792,-6.0835,-6.0874,-6.0911,-6.0936,-6.0986,-6.0987,-6.1013,-6.1005,-6.101,-6.1069,-6.1086,-6.1123,-6.1139,-6.1131,-6.1211,-6.1197,-6.1173,-6.1131,-6.1209,-6.1241,-6.1254,-6.1084,-6.1083,-6.1082,-6.1081,0,0,-6.0907,-6.0942,-6.0956,-6.0973,-6.1001,-6.1034,-6.1083,-6.1121,-6.1144,-6.117,-6.1211,-6.1265,-6.1244,-6.1263,-6.1257,-6.1292,-6.137,-6.1264,-6.1264,-6.1283,-6.1461,-6.1479,-6.1494,-6.1358,-6.1361,-6.1363,-6.1459,0,-6.0997,-6.1084,-6.1081,-6.1161,-6.1202,-6.1181,-6.1224,-6.1245,-6.1252,-6.1286,-6.1292,-6.1331,-6.13,-6.1312,-6.1346,-6.1354,-6.1406,-6.1347,-6.1396,-6.1398,-6.1391,-6.151,-6.1529,-6.1619,-6.1471,-6.1473,-6.1475,0,-6.1113,-6.1145,-6.1231,-6.1255,-6.1271,-6.131,-6.1345,-6.1379,-6.1404,-6.1406,-6.143,-6.1418,-6.1468,-6.1425,-6.1494,-6.1454,-6.1475,-6.1482,-6.1485,-6.1489,-6.1441,-6.1518,-6.1647,-6.1661,-6.1494,-6.1493,-6.1491,0,-6.119,-6.1254,-6.1313,-6.1329,-6.1358,-6.1386,-6.14,-6.1422,-6.1446,-6.1476,-6.1492,-6.1527,-6.1547,-6.1575,-6.1573,-6.1542,-6.1644,-6.1601,-6.1647,-6.1647,-6.1668,-6.1667,-6.1803,-6.1682,-6.1682,-6.1682,-6.1681,0,-6.1291,-6.1344,-6.1349,-6.1385,-6.1445,-6.1441,-6.1499,-6.151,-6.1531,-6.1569,-6.1553,-6.1589,-6.1585,-6.1622,-6.1621,-6.1679,-6.1687,-6.169,-6.1689,-6.1692,-6.1692,-6.1705,-6.1698,-6.1685,-6.1684,-6.1684,-6.1683,0,-6.1385,-6.1391,-6.1455,-6.1478,-6.1486,-6.1528,-6.1548,-6.1583,-6.1589,-6.1638,-6.1649,-6.1658,-6.1701,-6.1702,-6.1751,-6.175,-6.1821,-6.1813,-6.1813,-6.1811,-6.1858,-6.1854,-6.2007,-6.2027,-6.1893,-6.1894,-6.1895,0,-6.1449,-6.149,-6.1519,-6.1544,-6.156,-6.1601,-6.1625,-6.1623,-6.165,-6.1683,-6.1714,-6.1755,-6.1788,-6.1857,-6.1867,-6.1905,-6.1898,-6.1949,-6.1903,-6.1905,-6.1899,-6.1896,-6.1901,-6.1958,-6.1959,-6.196,-6.1961,0,-6.1562,-6.1564,-6.16,-6.1639,-6.1669,-6.1699,-6.1727,-6.1748,-6.175,-6.178,-6.1824,-6.185,-6.1901,-6.1942,-6.1979,-6.1992,-6.1978,-6.1976,-6.1989,-6.1991,-6.199,-6.1992,-6.1838,-6.1972,-6.1971,-6.197,-6.197,-6.1969,-6.1644,-6.168,-6.1706,-6.1748,-6.177,-6.1797,-6.1831,-6.1842,-6.188,-6.1922,-6.1918,-6.1968,-6.1993,-6.2041,-6.2058,-6.2096,-6.2078,-6.2097,-6.2101,-6.2106,-6.2111,-6.1985,-6.2103,-6.2102,-6.2102,-6.2102,-6.2102,0,-6.1756,-6.1773,-6.1812,-6.1852,-6.1886,-6.1871,-6.1901,-6.193,-6.1974,-6.1999,-6.2033,-6.2085,-6.2125,-6.214,-6.218,-6.2208,-6.2202,-6.2218,-6.2216,-6.2219,-6.2124,-6.211,-6.2222,-6.2222,-6.2222,-6.2222,-6.2222,-6.2222,-6.1819,-6.1879,-6.1884,-6.1956,-6.1972,-6.2021,-6.204,-6.2065,-6.2086,-6.2145,-6.2179,-6.2189,-6.221,-6.2252,-6.2289,-6.2292,-6.2307,-6.2327,-6.2327,-6.2238,-6.2226,-6.2214,-6.22,-6.233,-6.233,-6.2418,-6.2419,-6.242]}]]